Back to catalog

VIASAT 1

AliveCommunicationsGEO
NORAD 37843·PAYLOAD·🇺🇸 United States

Launched Oct 19, 2011 from Baikonur Cosmodrome

Loading…

TLE

FreshSource: Space-Track

Epoch: Sep 14, 2026, 13:15 UTC

1 37843U 11059A   26257.55235079 -.00000032  00000-0  00000-0 0  9995
2 37843   0.0174 200.3182 0002342 323.8533 273.1040  1.00271186 48211

Track VIASAT 1 in real time with AllMySat

Download on the App Store